Regional Weather Roundup
Issued by NWS

Home | Current Version | Previous Version | Text Only | Print | Product List | Glossary Off
Versions: 1 2 3 4 5 6 7 8 9 10 11 12 13 14 15 16 17 18 19 20 21 22 23 24 25 26 27 28 29 30 31 32 33 34 35 36 37 38 39 40 41 42 43 44 45 46 47 48 49 50

000
ASUS45 KBOU 240607
RWRCO

WEATHER ROUNDUP FOR COLORADO
NATIONAL WEATHER SERVICE DENVER/BOULDER CO
1200 AM MDT SUN MAY 24 2015

NOTE: "FAIR" INDICATES FEW OR NO CLOUDS BELOW 12000 FEET WITH NO
SIGNIFICANT WEATHER AND/OR OBSTRUCTIONS TO VISIBILITY.

COZ001>005-013-030-031-240700-
...NORTHWEST COLORADO...

CITY           SKY/WX    TMP DP  RH WIND       PRES   REMARKS
CRAIG          CLOUDY    43  36  76 E8        29.99F
HAYDEN         CLOUDY    39  34  81 E8        30.00F
MEEKER         CLOUDY    42  37  82 CALM      30.00F
MOUNT WERNER   NOT AVBL
STEAMBOAT SPGS CLOUDY    37  35  92 CALM      30.01F
WALDEN         CLOUDY    34  32  93 SE6       30.02F WCI  29
$$

COZ006>008-011-240700-
...WEST CENTRAL VALLEYS...

CITY           SKY/WX    TMP DP  RH WIND       PRES   REMARKS
GRAND JUNCTION PTCLDY    45  42  89 SE10      29.97F
MONTROSE       MOCLDY    43  42  97 W5        30.03F
EAGLE          PTCLDY    39  36  87 E6        30.04F
RIFLE          CLOUDY    46  39  76 CALM      29.98F
DELTA          CLOUDY    48  43  84 MISG      30.01F
NUCLA          CLOUDY    43  41  93 CALM      30.05S
$$

COZ017>023-064>068-240700-
...SOUTHWEST COLORADO...

CITY           SKY/WX    TMP DP  RH WIND       PRES   REMARKS
DURANGO        MOCLDY    41  37  86 CALM      30.04F
CORTEZ         MOCLDY    44  43  96 CALM      30.02F
PAGOSA SPRINGS CLOUDY    43  34  69 SW5       30.07S
TELLURIDE      PTCLDY    33  32  94 CALM      30.08F
WOLF CREEK PAS NOT AVBL
$$

COZ009-010-012-014-032>034-037-058>063-240700-
...CENTRAL COLORADO...

CITY           SKY/WX    TMP DP  RH WIND       PRES   REMARKS
ASPEN          MOCLDY    37  34  89 SW3       30.03S
BUENA VISTA    PTCLDY    38  29  69 CALM      30.01S
COPPER MTN     PTCLDY    28  19  69 CALM      30.12F
BERTHOUD PASS  FAIR      19  10  68 NW18      30.12F WCI   4
COTTONWOOD PAS PTCLDY    37  27  65 W12G17    30.06S
GUNNISON       MOCLDY    41  30  65 S7        30.06S
KREMMLING      CLOUDY    36  32  87 E3        30.04F
LEADVILLE      PTCLDY    27  23  85 N3        30.05F
MONARCH PASS   MOCLDY    27  23  86 MISG      30.23S
SALIDA         PTCLDY    42  32  66 CALM      30.08R
SUNLIGHT       MOCLDY    32  30  93 CALM      30.14S
WILKERSON PASS PTCLDY    30  21  69 CALM      30.15R
$$

COZ069>075-240700-
...SAN LUIS VALLEY/SANGRE DE CRISTO MOUNTAINS...

CITY           SKY/WX    TMP DP  RH WIND       PRES   REMARKS
ALAMOSA        PTCLDY    38  26  62 SW9       30.02R
LA VETA PASS   CLEAR    N/A N/A N/A MISG      30.12R
SAGUACHE       CLOUDY    43  30  61 NW3       30.03R
$$

COZ035-036-038>040-240700-
...NORTHERN COLORADO FRONT RANGE...

CITY           SKY/WX    TMP DP  RH WIND       PRES   REMARKS
DENVER INTL AP PTCLDY    44  41  89 S7        29.95R
DMNS CITY PARK   N/A     44  43  96 S3        29.96R
AURORA         PTCLDY    42  42  99 S8        29.98R
FRONT RANGE AP NOT AVBL
ERIE MUNI ARPT PTCLDY    43  42  95 SW5       29.94R
BOULDER MUN AP PTCLDY    43  41  93 SW5       29.94R
CENTENNIAL     PTCLDY    41  40  96 SE7       29.97R
BROOMFIELD     PTCLDY    43  39  87 CALM      29.97R
FORT COLLINS   MOCLDY    46  43  87 N7        29.94F
LONGMONT       MOCLDY    45  43  93 CALM      29.96R
$$

COZ041-046-047-076>085-087-088-240700-
...PIKES PEAK/PALMER DIVIDE AND SOUTHERN FOOTHILLS...

CITY           SKY/WX    TMP DP  RH WIND       PRES   REMARKS
COLO. SPRINGS  TSTM      50  36  58 VRB7      29.99R
A. F. ACADEMY  MOCLDY    45  39  81 NW5       29.99R
ELLICOTT       NOT AVBL
FALCON         CLOUDY    44  41  88 NE5       30.02R
FORT CARSON    CLOUDY    48  42  80 NE5       29.96F
LIMON          CLOUDY    46  45  96 NE8       29.96R
MONUMENT HILL  NOT AVBL
TRINIDAD       CLEAR     51  48  89 S3        29.94F
$$

COZ042>045-048>051-090-091-240700-
...NORTHEAST COLORADO...

CITY           SKY/WX    TMP DP  RH WIND       PRES   REMARKS
GREELEY ARPT   MOCLDY    48  41  76 CALM      29.92R
AKRON          FOG       48  48 100 E8        29.94S VSB 1/2
BURLINGTON     CLOUDY    51  49  92 W5        29.95R
WRAY           CLOUDY   N/A N/A N/A SE9       29.93S
STERLING       CLOUDY    50  50 100 E5        29.91F
HOLYOKE        NOT AVBL
FORT MORGAN    CLOUDY    47  45  94 NE3       29.94S
$$

COZ086-089-092>099-240700-
...SOUTHEAST COLORADO...

CITY           SKY/WX    TMP DP  RH WIND       PRES   REMARKS
PUEBLO         MOCLDY    51  48  89 N6        29.94R
LA JUNTA       MOCLDY    51  48  89 SE8       29.91R
LAMAR          CLOUDY    52  50  93 E5        29.89S
SPRINGFIELD      N/A     55  54  96 SE12      29.92F
$$



USA.gov is the U.S. government's official web portal to all federal, state and local government web resources and services.